Theta_e
332 332 331 331 331 331 332 333 333 333 328 327 326 327 326 323 319 317 312 317 317 323 327 325 327 333 334 334 334 333 333 333 332 331 331 331 331 325 320 320 324 329 331 333 338 340 339 339 338 336 336 335 334 334 334 334 333 332 331 330 329 328 327 326 325 325 325 324 323 322 322 321 320 320
331 331 331 332 331 332 332 332 332 330 329 328 328 328 328 327 323 320 317 318 319 321 325 326 324 327 332 334 334 334 333 330 331 333 332 331 331 325 321 318 319 321 322 324 328 333 338 339 339 338 338 337 336 335 334 334 334 333 331 330 329 326 325 325 326 326 326 325 324 324 323 322 320 320
332 330 330 330 331 331 331 331 331 331 331 330 330 329 329 328 326 324 319 317 320 325 322 325 329 329 330 332 333 334 334 332 331 333 333 333 328 325 325 319 317 317 317 319 322 325 331 336 338 338 338 337 337 336 335 334 334 333 330 327 324 322 322 325 327 327 327 326 325 324 323 323 321 320
331 330 330 330 330 330 330 330 331 331 331 331 331 330 329 328 328 326 323 321 322 325 327 328 329 330 329 330 330 329 331 333 326 332 333 333 327 328 329 322 318 316 315 316 317 319 323 328 333 336 336 337 336 336 335 334 331 327 325 324 322 321 320 323 326 327 327 327 326 325 324 324 322 321
331 331 330 330 331 330 329 329 330 331 332 332 331 331 330 328 328 327 325 323 323 326 328 328 328 329 329 329 328 327 327 329 329 327 331 333 332 331 330 330 320 315 314 314 314 314 315 318 323 329 335 334 331 332 330 325 324 325 326 325 323 320 319 319 324 327 328 327 327 326 325 324 323 322
331 331 330 330 330 330 330 330 331 332 332 331 330 330 330 329 328 329 326 325 323 323 323 324 327 328 330 328 329 328 326 326 328 329 330 331 331 331 330 329 329 317 314 313 313 312 312 313 314 317 325 326 321 318 318 318 318 321 323 323 320 317 316 316 319 323 326 327 327 326 326 325 323 322
330 330 329 329 328 329 329 329 330 330 330 331 330 329 330 329 328 329 328 325 323 323 324 325 326 326 327 327 329 331 330 329 329 329 329 330 331 331 330 329 329 319 314 312 312 311 311 311 312 312 314 316 316 316 315 315 314 315 316 316 315 314 314 314 315 319 323 325 325 325 325 324 323 322
329 328 327 328 327 327 327 327 327 328 328 328 329 329 329 329 328 328 329 328 325 324 323 325 326 327 326 328 329 329 328 328 328 329 329 329 331 331 331 330 330 325 316 312 311 311 311 310 310 311 311 312 312 313 313 313 313 313 312 313 313 312 312 312 311 314 319 321 321 323 323 322 322 322
328 327 327 328 327 326 325 325 325 327 327 329 329 328 329 329 329 330 329 329 328 325 324 324 324 325 327 327 329 329 329 329 327 326 327 329 330 330 331 333 333 323 318 314 313 312 311 310 310 310 310 310 310 311 311 312 312 312 311 311 311 311 311 311 311 311 312 313 314 314 317 317 319 322
328 330 331 331 329 327 326 326 326 326 327 327 327 327 328 328 329 328 328 328 327 326 325 324 325 323 325 325 325 328 328 327 327 326 327 327 328 329 329 331 333 334 331 327 324 314 312 310 309 310 309 309 309 309 310 310 310 311 311 311 310 310 310 310 310 310 309 309 310 311 312 312 313 317
329 328 329 329 329 328 327 326 326 325 325 325 325 326 327 327 327 327 327 326 325 325 324 324 323 323 323 324 324 326 327 327 326 325 324 325 328 326 327 328 331 332 332 327 321 322 320 317 316 311 308 308 308 308 309 309 310 311 311 310 310 310 309 309 309 309 308 307 307 308 309 309 310 313
329 329 329 329 330 330 329 328 328 327 326 325 325 325 326 326 325 324 323 323 324 324 323 323 323 320 322 323 324 325 324 323 323 324 324 324 326 326 323 327 329 330 330 330 330 324 320 318 316 313 311 311 310 309 309 309 310 311 311 310 309 309 309 309 308 308 308 308 307 306 306 306 306 308
319 319 321 322 325 327 328 329 327 327 328 326 325 325 323 324 324 324 324 325 325 325 325 325 325 323 323 323 322 322 320 320 322 323 321 324 326 326 325 327 328 328 328 328 328 329 330 327 324 322 321 320 315 313 311 312 311 311 310 309 308 308 308 308 308 308 308 308 307 307 306 306 305 305
317 317 318 320 324 324 324 323 317 312 312 317 325 327 323 323 324 324 325 324 324 324 323 323 323 322 321 322 322 322 322 324 324 323 322 322 325 322 323 325 327 328 326 325 326 328 330 328 328 326 324 325 322 321 317 315 315 312 309 308 307 307 307 307 307 307 307 308 307 307 306 306 305 305
314 315 316 316 319 320 320 318 309 307 306 304 303 304 310 317 323 324 323 323 322 322 322 323 322 322 322 323 323 323 324 324 324 323 323 322 320 320 320 320 324 326 327 324 323 326 329 327 326 327 327 327 326 323 322 315 311 309 309 308 307 307 306 306 306 306 307 307 307 307 306 305 305 304
312 313 313 314 316 315 315 311 309 311 308 304 305 304 302 301 301 301 311 319 321 321 322 322 322 322 322 322 323 322 322 321 321 323 322 321 320 320 320 321 320 323 325 323 323 324 328 326 325 325 327 329 329 328 320 313 311 309 308 308 307 306 306 306 306 306 306 306 306 306 306 305 304 304
310 311 312 312 305 305 311 310 307 309 310 309 306 306 307 308 307 302 299 298 311 314 316 318 320 322 320 319 321 318 314 315 316 318 318 319 319 320 319 320 322 325 325 323 322 322 325 326 323 324 327 328 328 329 319 315 312 310 308 307 306 306 305 305 305 305 305 305 305 305 305 304 304 304
308 309 308 303 301 301 301 302 304 305 306 305 306 305 306 307 308 306 305 304 301 305 313 313 313 314 313 311 310 310 310 310 310 311 311 313 313 314 314 317 319 322 326 324 323 321 324 327 325 324 327 329 329 329 322 316 313 311 309 308 307 306 305 305 305 304 304 304 304 304 304 304 303 303
307 305 303 301 300 299 299 301 302 303 302 302 303 302 302 303 305 306 308 308 308 307 307 306 306 306 306 306 305 305 306 307 307 308 309 310 311 312 314 316 318 319 322 324 323 319 324 327 325 325 326 328 328 329 320 316 313 311 310 309 307 306 305 305 304 304 304 304 303 303 303 303 302 302
306 306 303 301 300 298 298 298 295 298 302 300 300 300 300 301 302 305 308 300 302 303 301 302 302 302 303 300 301 302 302 302 304 307 308 308 308 308 307 307 309 310 315 320 322 321 322 326 323 323 325 326 325 327 328 319 316 313 312 310 309 307 306 305 305 304 304 304 303 303 303 302 302 302
306 307 303 302 299 298 298 297 292 293 301 299 298 298 299 300 301 302 304 302 300 298 297 296 296 295 296 296 296 296 297 299 302 303 303 304 305 304 304 305 306 308 311 313 318 318 317 322 323 322 323 324 323 324 326 327 318 314 312 310 310 309 307 306 305 305 304 304 304 303 303 302 302 303
304 308 312 307 300 299 298 294 292 292 298 298 297 297 298 299 299 300 302 303 302 299 299 298 297 296 296 296 297 299 299 299 302 303 302 305 304 304 304 304 305 307 310 311 315 313 313 317 320 319 321 321 322 323 324 325 324 317 315 312 309 309 309 308 307 305 305 304 304 304 303 303 302 306
301 303 305 307 302 300 297 292 292 292 297 297 297 296 297 298 298 300 300 299 299 299 300 300 301 301 302 305 304 306 302 300 305 306 306 306 306 305 305 306 306 305 307 310 315 311 312 314 317 318 317 315 320 323 324 323 324 325 325 325 325 313 310 309 308 307 306 305 304 304 303 303 302 307
297 299 300 302 295 293 292 292 291 292 292 295 296 296 296 297 299 299 298 301 300 299 299 298 300 301 302 303 303 304 304 306 310 307 307 307 307 306 306 306 306 305 306 310 312 310 311 312 312 316 315 310 309 315 318 319 322 324 325 325 325 318 315 312 309 307 305 305 305 304 303 303 302 308
295 296 297 298 298 293 292 292 292 292 292 293 297 296 296 297 301 297 296 298 301 298 299 300 300 301 302 302 303 303 304 305 306 306 306 307 307 307 306 305 306 306 308 310 306 310 308 310 310 311 311 312 312 312 315 317 319 320 322 323 323 325 325 325 319 320 309 305 304 303 303 303 302 305
295 295 296 297 297 293 292 292 292 292 292 292 298 296 295 293 292 295 298 297 297 297 299 298 299 301 301 302 302 303 303 303 304 304 305 305 306 307 307 307 306 306 307 311 304 310 309 308 309 308 308 308 309 311 310 312 315 317 319 320 322 323 324 324 324 322 321 322 319 310 309 304 303 301
295 295 295 296 297 292 291 291 292 292 292 296 296 292 292 292 291 294 296 295 297 296 297 298 299 300 301 301 300 301 301 301 302 302 303 303 303 303 305 306 307 307 308 310 312 311 310 309 310 309 308 309 308 309 309 309 312 316 317 318 318 320 322 323 322 323 322 321 321 312 308 305 303 301
294 294 293 294 291 291 292 292 292 293 294 295 293 293 294 296 297 297 296 295 298 297 297 298 298 299 299 299 299 300 300 301 301 301 301 301 301 301 302 303 304 305 306 307 309 310 310 309 310 311 311 310 309 308 308 312 313 315 314 317 318 319 320 321 322 321 321 321 321 320 317 316 313 307
295 292 291 291 291 292 292 293 294 295 296 294 294 295 296 303 298 299 297 297 298 297 297 297 298 298 298 298 299 300 300 300 300 299 300 300 300 301 301 301 302 303 306 308 309 310 310 311 311 312 312 312 311 311 311 310 312 312 313 313 313 317 318 319 320 321 321 323 322 319 318 319 318 310
292 292 292 292 292 294 295 297 295 294 297 295 296 297 299 298 297 296 297 298 297 296 296 296 296 296 297 297 298 298 298 298 298 298 298 298 298 299 298 298 299 302 304 305 305 305 305 305 306 307 307 308 309 308 309 309 309 311 311 311 313 314 316 318 319 320 318 319 320 321 322 321 320 316
293 294 294 292 292 293 294 294 296 296 297 296 297 296 296 297 297 298 296 296 296 296 295 295 295 295 296 297 297 297 297 297 297 297 297 297 297 297 297 297 297 298 300 302 302 302 302 303 303 303 300 300 302 304 306 308 308 308 309 311 311 309 313 316 317 318 319 320 321 321 322 322 320 315
293 293 293 293 294 295 296 296 295 295 296 295 295 296 295 296 297 300 302 300 294 294 294 294 294 294 295 295 295 296 296 296 295 296 296 296 296 297 297 295 295 296 297 298 299 300 300 301 300 300 299 299 298 300 302 304 305 307 308 310 310 312 313 314 316 317 319 320 319 319 320 321 321 320
290 290 292 292 292 293 292 293 294 293 294 294 295 296 296 296 295 295 294 295 294 294 294 293 293 293 294 294 295 295 294 294 293 294 294 295 295 295 296 294 295 295 294 295 297 298 299 299 300 299 299 300 300 301 301 301 304 307 307 309 310 310 312 314 315 316 318 317 317 317 318 320 321 322
287 286 288 288 290 292 291 293 292 293 293 293 294 294 294 293 293 293 293 293 293 292 292 292 292 292 292 292 293 293 292 292 292 293 292 293 294 293 293 293 293 295 295 294 295 296 297 297 297 298 299 299 301 302 302 302 302 305 307 307 308 308 310 312 313 314 315 315 315 315 315 317 320 322
286 287 287 289 289 291 291 291 291 291 292 291 292 293 292 292 292 291 292 293 291 291 293 291 291 290 291 291 292 291 290 290 290 291 291 292 292 292 292 292 292 292 293 293 294 296 296 295 295 295 296 297 297 299 300 304 301 300 300 301 302 302 303 306 307 309 311 313 315 313 314 316 317 320
285 286 287 288 289 291 291 292 291 291 291 291 291 291 291 291 291 291 292 292 292 291 291 291 289 290 290 290 289 289 289 287 289 289 289 289 289 290 291 291 291 292 292 293 293 295 295 295 295 293 292 292 292 291 293 298 298 299 296 296 297 298 299 300 301 302 303 306 310 312 310 310 313 316
287 287 289 289 291 290 291 291 291 291 291 292 292 292 292 291 291 291 291 291 290 289 290 290 289 289 289 288 287 287 287 287 287 287 286 287 287 288 288 289 289 290 291 292 293 294 295 294 294 293 292 291 289 288 290 295 296 297 297 295 295 296 296 297 297 298 300 303 305 307 308 309 311 314
289 289 290 290 291 290 290 290 290 291 291 291 291 291 291 291 290 291 291 290 290 289 289 289 288 288 288 287 287 287 287 287 286 286 285 285 284 284 286 286 288 289 290 291 292 293 294 294 293 293 292 290 288 288 288 291 292 294 296 296 294 294 296 295 295 295 298 301 302 304 306 306 308 311
290 290 291 291 291 291 290 291 292 291 291 291 291 291 291 289 289 289 290 290 288 289 289 288 288 286 288 288 286 285 285 285 285 284 284 283 283 283 284 285 286 288 289 289 291 292 293 293 293 293 293 291 289 290 291 289 289 291 295 296 295 294 294 295 295 296 297 298 299 301 303 306 308 304
290 290 291 291 292 292 292 292 291 292 292 291 291 291 290 290 289 288 288 288 288 289 289 288 287 287 287 287 285 286 286 285 285 284 283 282 282 283 283 284 285 286 287 288 289 290 291 292 292 293 292 293 293 293 292 291 292 292 292 295 295 295 295 296 295 294 294 296 297 297 297 299 299 304
288 289 290 290 291 291 291 291 291 291 291 291 291 290 288 290 289 288 288 287 286 288 286 287 287 286 286 285 285 285 284 283 284 283 282 281 281 281 282 283 283 284 285 285 287 289 290 292 293 290 291 293 294 295 290 288 288 289 290 292 294 295 295 295 295 295 294 295 296 295 294 294 296 299
289 290 291 290 291 292 291 291 290 290 289 288 289 289 288 288 287 289 288 286 287 286 286 285 286 283 283 283 284 282 282 282 282 281 280 280 280 280 281 281 281 282 283 283 286 288 291 294 293 293 293 292 290 288 287 287 287 288 290 291 292 294 295 295 295 295 296 295 294 292 292 293 295 294
289 290 291 291 290 291 291 291 289 289 289 288 286 287 287 287 286 286 285 285 286 284 284 284 283 283 283 282 282 281 281 281 281 280 280 279 279 279 279 280 281 282 283 284 286 289 291 293 293 292 291 289 288 288 287 287 288 289 289 290 290 292 293 294 295 294 294 294 294 295 295 294 293 291
290 290 291 290 290 290 290 291 289 287 288 288 286 286 287 285 287 286 286 285 284 284 283 283 283 282 282 282 282 280 280 280 280 279 279 279 279 279 279 280 281 281 282 283 285 287 289 291 291 291 288 287 288 288 288 288 288 289 289 289 290 290 290 292 292 294 294 294 294 294 294 294 295 296
290 290 290 290 290 291 291 289 288 288 287 286 285 286 286 285 285 284 284 284 283 283 282 282 282 281 281 281 280 279 279 281 281 279 279 279 279 279 279 279 280 280 281 282 283 285 288 289 290 289 288 287 288 288 288 288 288 288 289 289 288 289 290 290 290 290 291 292 294 294 294 294 294 294
Wind_Speed
6 5 6 6 5 5 4 4 4 5 3 3 3 5 6 5 5 5 4 4 4 3 3 3 4 4 3 5 4 4 6 11 11 8 10 11 10 14 20 22 22 23 23 23 24 25 25 24 23 22 22 22 22 22 21 20 21 23 23 23 22 21 19 19 19 18 19 20 22 20 18 18 20 20
4 4 5 5 5 5 5 5 4 4 4 4 4 5 5 5 7 6 6 7 3 5 4 4 4 3 2 4 5 5 7 13 14 10 11 11 12 17 18 20 21 22 23 23 23 24 25 25 26 25 25 25 25 25 24 24 23 24 23 22 20 19 18 18 19 18 19 21 20 20 19 18 19 20
5 5 5 4 5 5 5 5 5 4 5 5 5 6 6 6 7 6 4 5 5 4 4 5 4 4 3 2 5 5 6 10 13 10 11 12 15 19 15 18 20 22 23 23 23 23 24 25 26 25 25 26 26 26 26 25 24 23 21 20 19 19 18 18 19 19 20 22 22 21 20 18 18 19
5 5 6 6 6 5 4 5 5 5 5 5 5 5 6 6 7 6 5 7 12 5 6 7 7 4 4 4 5 5 5 7 10 8 10 12 15 11 9 15 19 21 22 23 23 23 23 23 24 24 24 24 25 25 25 24 23 22 21 21 20 19 19 20 20 21 21 23 23 22 22 21 20 19
4 5 5 5 5 4 5 5 5 5 5 5 5 5 5 6 6 6 7 7 11 9 5 6 5 4 3 5 3 4 4 4 4 6 7 8 8 8 9 10 15 19 20 21 22 23 22 22 22 23 23 23 23 23 23 23 22 22 22 22 22 21 20 19 20 22 21 22 24 24 24 23 22 21
4 5 5 6 5 5 5 5 5 5 5 5 5 4 5 6 6 7 6 8 6 12 4 4 4 6 2 6 3 5 3 4 3 4 5 6 7 8 8 8 9 15 18 20 21 21 22 22 22 22 22 22 21 21 21 21 21 21 21 21 22 22 20 19 19 21 22 22 23 23 23 23 22 21
3 4 5 5 3 2 3 4 4 4 4 4 5 7 6 6 6 6 6 4 6 9 10 5 6 4 3 5 6 4 3 3 2 3 4 5 5 5 7 8 8 11 14 17 19 20 20 21 22 22 22 22 22 21 21 21 20 20 21 21 20 21 21 20 20 21 22 22 23 22 22 22 22 22
3 4 4 4 3 3 3 4 4 4 3 4 5 6 5 5 4 4 5 7 7 6 8 6 3 4 4 4 4 4 3 3 5 3 4 3 5 5 6 7 8 9 13 15 17 18 19 20 21 21 22 22 23 23 22 21 21 21 21 21 21 20 20 21 21 22 23 23 23 23 22 22 23 22
2 2 3 3 2 1 2 3 3 4 5 6 5 5 4 4 4 5 6 7 7 7 8 8 3 3 3 3 4 4 6 6 4 4 5 5 5 5 5 5 6 9 12 14 17 18 20 21 21 22 22 23 23 22 22 22 21 21 22 21 22 21 20 21 21 22 23 23 23 23 23 23 23 23
1 1 2 3 2 1 3 4 4 3 5 4 4 4 5 5 5 5 6 6 6 6 7 5 8 4 5 5 3 2 4 6 7 6 6 5 6 5 6 6 6 4 3 5 8 10 13 17 20 21 21 22 23 23 22 23 23 22 22 23 23 22 22 22 22 23 23 23 23 23 23 23 23 23
1 2 3 4 3 3 4 4 4 3 3 4 5 5 5 5 4 5 4 4 5 5 6 6 5 6 4 4 6 2 3 5 5 6 7 8 6 3 5 8 6 5 6 8 12 12 12 14 13 17 21 22 23 21 20 21 22 21 22 23 23 23 23 24 24 23 23 23 23 23 23 23 23 23
2 1 2 3 2 2 2 2 3 3 4 3 4 4 4 4 4 4 3 3 5 5 5 6 5 3 5 5 4 4 3 5 4 3 4 8 9 7 2 6 8 5 5 7 6 8 9 10 13 15 15 19 21 21 20 22 22 23 23 23 24 24 24 24 24 24 24 24 24 23 23 23 23 23
6 5 5 5 5 7 10 9 7 6 5 4 5 5 3 3 4 4 3 4 5 5 5 5 4 5 6 6 6 7 4 4 6 5 3 6 8 6 7 8 7 7 7 6 6 8 8 7 7 7 8 11 15 16 21 18 22 23 22 24 24 25 25 25 25 25 25 25 25 24 24 24 23 23
6 7 7 8 13 13 12 11 10 9 9 8 6 6 4 4 5 5 4 4 4 4 5 6 6 6 6 6 5 5 4 5 5 6 5 6 8 6 7 9 6 5 4 5 8 9 7 6 9 7 9 10 8 8 9 11 14 18 23 24 24 25 25 25 25 26 26 26 26 25 24 24 24 24
7 6 5 5 7 8 8 9 13 12 12 9 8 9 9 7 5 5 5 5 3 2 4 4 5 6 7 7 4 4 6 5 6 7 6 6 6 6 7 10 9 1 4 4 5 10 5 4 8 9 9 10 8 7 10 15 18 20 20 21 23 24 24 25 25 25 26 26 26 26 25 24 24 24
5 6 5 5 5 6 7 6 7 8 10 12 11 9 6 4 4 4 3 4 5 3 4 4 4 4 5 6 6 5 6 8 8 7 7 6 6 8 8 7 10 4 1 4 8 13 9 4 7 9 9 9 8 8 12 16 17 19 20 22 22 22 23 24 25 26 26 25 25 26 26 25 25 25
6 5 4 5 7 6 12 9 6 6 7 9 11 10 9 9 11 9 6 2 2 3 4 5 6 5 7 8 5 7 8 8 8 8 8 7 7 7 9 8 9 11 5 5 9 12 13 8 5 9 11 10 8 10 13 18 18 19 20 21 21 22 22 23 24 24 25 25 26 26 26 25 25 25
7 7 7 7 6 6 7 7 8 6 6 6 6 7 6 6 8 9 9 9 6 4 4 4 5 6 6 6 7 6 5 7 8 8 9 8 8 9 9 11 12 13 9 9 9 12 13 11 8 10 12 9 8 9 14 18 18 19 19 20 21 22 23 23 24 24 24 25 25 26 26 26 25 25
5 6 6 6 6 5 6 6 8 6 5 5 5 4 5 4 4 3 5 5 4 4 3 3 3 5 4 6 8 8 5 5 6 6 8 9 10 10 9 10 10 11 7 7 7 12 11 10 11 10 11 11 11 9 14 17 19 19 19 20 21 22 22 23 24 24 24 25 25 26 26 26 26 26
4 4 5 6 5 4 4 6 9 8 5 3 3 5 4 4 2 2 3 6 4 3 3 3 4 5 6 7 8 9 7 6 5 6 7 6 6 6 6 8 7 8 7 5 7 10 10 8 12 12 9 10 12 11 11 16 19 19 20 20 21 21 21 23 23 24 24 24 25 25 26 25 25 25
4 3 6 5 4 3 4 5 8 9 8 3 3 3 3 3 3 2 0 2 1 3 6 8 9 10 11 12 12 12 12 8 4 4 5 7 5 6 8 8 7 8 7 7 7 10 11 8 11 13 11 11 12 12 13 12 16 19 19 19 21 21 21 21 22 22 23 24 24 24 25 25 24 26
5 7 11 7 4 4 4 6 8 8 5 2 2 3 5 6 6 5 4 4 3 3 4 6 8 10 11 12 13 12 12 13 7 1 6 7 6 6 5 8 8 9 7 8 7 8 8 8 8 11 11 10 9 9 11 12 14 17 17 19 20 21 21 21 21 21 22 23 24 24 24 24 23 16
4 4 6 7 5 5 6 8 7 7 4 2 2 2 3 4 5 4 4 5 7 7 7 7 6 7 7 7 7 8 13 13 10 4 5 7 6 7 8 8 8 9 5 3 4 9 9 9 9 9 12 12 9 5 8 8 9 9 9 10 11 15 19 21 21 21 22 22 22 23 24 24 20 10
2 2 2 2 3 8 9 8 6 4 5 3 3 1 2 3 5 3 6 4 4 5 4 5 4 5 6 5 4 5 5 6 5 6 6 5 6 7 8 8 8 9 8 8 9 9 9 7 11 7 9 12 13 10 12 12 10 9 8 9 8 10 13 15 14 18 20 20 21 22 23 23 19 10
5 5 4 3 5 11 12 11 11 9 6 5 2 2 2 2 4 6 5 5 6 4 4 5 5 5 5 5 5 5 5 6 6 6 6 6 6 7 8 9 9 10 9 9 11 9 10 7 11 11 9 9 11 12 11 12 11 10 11 11 12 10 9 10 6 8 11 18 21 22 22 22 21 16
5 6 6 6 9 14 13 13 12 11 10 7 1 2 5 9 9 5 2 3 3 4 4 5 5 5 6 6 6 7 7 7 8 7 7 7 7 6 6 8 10 11 12 10 13 10 11 11 9 11 11 9 13 11 12 12 10 11 11 10 10 11 9 11 9 8 7 8 9 12 16 23 24 24
4 4 4 6 11 13 12 11 11 10 10 6 5 8 6 5 6 4 1 1 3 5 5 5 6 6 6 6 7 7 8 8 8 8 7 8 8 7 7 8 8 10 11 12 12 11 10 10 9 10 13 11 13 14 11 12 10 7 11 11 10 11 9 10 12 10 8 9 10 15 18 19 18 17
4 5 5 7 12 11 10 10 9 9 7 6 10 11 11 8 5 3 4 4 5 4 6 6 6 6 6 7 7 7 7 7 8 8 7 8 8 8 8 9 9 9 10 10 10 10 10 11 10 10 12 12 12 14 15 11 11 10 11 12 12 12 9 9 11 10 9 8 9 9 8 9 8 9
4 6 9 10 10 10 9 10 9 8 10 11 10 11 11 9 6 7 6 6 5 7 6 6 6 6 6 6 6 6 6 6 6 7 8 8 7 7 8 9 9 8 7 7 9 10 10 10 11 11 10 10 11 11 11 13 12 11 9 11 12 10 11 10 9 11 11 9 9 8 9 10 9 8
8 8 10 11 11 10 9 7 4 4 5 7 8 9 7 6 7 6 6 6 7 6 6 6 6 6 6 7 6 5 5 6 7 8 9 9 9 9 9 10 9 7 7 8 10 11 12 12 12 13 14 13 12 13 12 13 14 11 9 11 12 12 9 9 10 9 9 10 10 10 10 9 11 9
9 10 8 7 7 5 8 7 4 4 5 6 7 6 6 6 6 6 6 6 6 4 5 5 6 6 6 6 6 7 7 8 8 8 9 8 9 9 9 9 8 9 8 7 7 7 9 10 11 12 13 14 14 14 14 12 14 14 11 10 10 13 10 9 11 11 9 11 11 11 10 9 9 11
6 6 7 7 7 7 7 7 6 6 5 4 4 6 6 6 4 5 4 4 4 3 2 4 5 5 7 8 8 8 8 8 8 9 9 9 10 10 10 9 9 9 10 10 9 9 8 8 10 10 10 11 12 14 13 13 13 13 13 11 11 12 10 9 10 11 10 11 12 12 11 10 10 8
4 5 6 7 7 6 5 5 6 6 6 6 6 5 6 6 6 6 6 7 6 5 5 6 6 7 7 7 7 7 8 9 9 9 9 9 10 9 8 9 9 9 12 12 11 12 10 11 10 10 10 11 11 12 12 13 11 10 12 12 11 11 11 9 9 11 11 11 12 13 13 11 10 10
1 2 4 4 4 5 5 5 5 6 5 5 6 6 5 5 6 6 6 6 5 4 6 6 6 6 6 6 6 6 7 8 8 8 8 9 9 10 10 11 10 9 9 10 10 10 12 13 13 11 10 9 8 9 9 10 11 9 10 11 12 12 12 11 11 12 12 11 13 15 15 14 11 9
1 1 3 5 5 4 2 3 3 3 4 4 3 4 4 4 5 5 6 6 4 4 5 5 5 5 6 6 6 7 7 8 8 8 8 7 8 8 9 10 11 11 11 12 11 10 10 12 12 13 13 11 12 4 4 6 8 11 11 10 10 11 13 12 12 13 13 13 12 14 16 14 14 10
1 1 2 3 3 3 2 2 2 2 2 3 2 2 3 3 2 3 5 4 4 5 6 6 5 6 6 5 5 5 6 5 6 7 8 8 8 8 9 9 9 10 10 10 10 10 10 9 10 12 14 14 12 14 9 5 9 9 11 12 10 11 13 13 13 13 13 13 13 13 15 17 14 12
3 2 3 4 5 4 1 1 1 1 1 1 1 1 2 4 4 3 2 2 4 3 3 3 4 4 4 3 4 5 4 5 6 7 8 8 7 8 9 9 10 10 10 9 9 10 9 10 10 10 12 11 11 12 14 8 9 9 9 13 13 11 13 14 13 14 13 11 13 13 14 16 17 15
4 3 3 5 5 6 3 2 2 2 2 1 1 1 1 1 1 1 1 1 1 1 1 2 2 2 3 2 4 6 6 5 5 6 7 7 8 8 8 9 10 10 10 11 10 10 9 9 10 10 10 12 13 13 16 11 7 11 12 12 14 15 11 13 14 12 14 11 12 14 13 16 17 15
5 5 6 6 7 6 4 5 5 5 5 4 4 4 3 2 2 1 0 1 1 2 2 3 3 3 3 4 3 4 5 6 7 7 8 8 8 9 9 9 10 10 11 11 10 10 9 9 10 10 10 12 13 14 14 15 14 10 15 20 14 15 12 10 13 14 13 14 14 14 15 16 20 24
7 6 6 6 7 7 7 5 6 6 6 6 6 6 5 4 3 2 2 2 3 4 4 4 3 4 4 4 4 4 5 5 6 6 7 8 9 9 9 9 9 11 10 11 12 11 11 11 9 10 12 13 14 14 13 13 13 10 10 15 17 14 14 11 13 14 15 13 12 14 17 16 15 14
6 6 7 7 7 7 7 7 7 6 6 6 5 5 6 5 4 5 4 4 3 4 4 5 3 3 4 4 3 4 5 5 6 6 7 7 8 8 11 10 9 9 10 11 12 13 12 11 13 18 17 13 13 12 11 11 13 12 10 11 14 17 19 17 14 14 15 15 13 15 16 16 15 15
6 7 7 6 7 8 7 7 6 6 6 5 5 6 5 5 6 6 5 4 3 4 4 5 4 4 4 4 4 3 3 5 6 7 7 8 10 10 10 8 9 9 9 11 12 13 13 13 13 12 11 11 10 11 13 13 14 15 13 12 13 16 20 20 20 20 17 14 13 14 14 14 11 13
6 7 7 7 6 7 7 7 7 7 7 6 5 5 5 5 5 5 5 5 5 4 4 4 4 3 4 4 4 4 4 5 6 7 8 8 9 10 10 10 10 11 11 12 12 12 12 12 11 11 11 9 9 9 13 14 14 14 14 13 14 14 15 18 20 21 21 23 22 19 16 14 12 15
7 6 7 7 7 7 7 7 7 6 7 7 6 4 4 5 6 6 5 4 4 4 3 3 3 3 3 4 4 4 5 6 6 7 8 8 8 9 10 10 10 11 11 11 12 11 11 11 10 9 11 11 10 10 13 14 14 13 13 13 13 14 16 14 14 16 16 19 20 23 28 29 27 29
7 6 6 7 7 7 7 7 7 6 5 4 4 4 4 4 5 6 5 3 2 2 2 1 1 2 3 3 4 6 6 7 7 6 7 8 8 8 8 9 10 10 11 10 11 12 11 10 10 9 10 11 9 11 13 13 14 14 14 14 15 14 13 13 15 16 15 16 16 20 24 25 27 29
Wind_Direction
186 185 188 209 228 233 228 225 222 224 183 179 189 193 207 198 241 286 278 253 234 279 234 245 282 219 203 208 204 214 228 243 236 214 218 225 228 224 220 224 227 231 232 232 231 231 229 227 225 226 226 225 225 228 232 227 222 226 230 233 235 237 235 225 228 231 232 237 243 248 250 251 254 255
177 186 195 200 214 223 218 219 197 183 193 187 191 203 212 187 214 226 260 281 196 251 262 217 253 280 211 188 219 210 230 235 229 222 220 224 229 231 221 219 223 228 231 232 232 231 230 229 227 225 225 226 226 226 228 232 231 229 229 231 233 234 231 225 224 223 222 227 230 232 237 242 250 254
179 186 201 208 224 219 219 220 219 217 205 209 197 202 194 207 213 223 213 274 270 214 238 267 256 257 283 250 232 238 231 236 224 219 223 226 230 231 227 221 222 225 228 231 233 234 233 231 229 228 226 226 227 227 227 229 229 227 226 227 227 229 227 223 222 222 218 222 225 229 235 235 236 248
194 201 211 212 216 213 214 225 229 229 225 211 207 198 202 211 210 207 214 235 265 234 254 265 275 277 300 281 275 269 258 250 232 221 225 232 234 233 233 228 224 224 225 229 232 234 236 236 236 234 232 229 228 228 229 228 227 225 226 225 224 223 223 223 221 220 214 218 222 224 226 228 228 237
204 210 221 226 224 193 201 217 221 223 219 206 211 206 204 215 203 200 212 233 263 278 232 254 269 289 287 291 240 286 282 270 246 220 231 238 237 235 232 235 228 226 226 228 230 233 235 236 238 239 238 236 235 234 233 231 230 227 223 221 220 219 220 222 223 223 216 216 220 223 224 226 227 227
203 201 214 226 215 192 207 213 218 216 210 216 226 220 211 217 216 205 207 230 245 273 297 286 261 275 266 269 243 233 276 311 307 275 252 238 228 232 234 238 239 225 226 228 231 233 235 236 236 238 240 241 239 239 239 238 236 233 229 225 223 221 218 216 219 223 224 218 220 222 223 223 222 222
238 216 217 225 206 195 219 226 226 220 224 219 227 235 223 226 222 220 222 230 250 261 274 257 276 273 274 241 273 282 268 282 274 268 268 253 247 229 225 234 242 237 226 230 233 235 236 237 237 237 238 241 243 241 240 240 238 237 236 235 232 226 222 218 215 218 222 224 223 223 222 222 221 222
240 231 229 231 203 187 217 232 224 227 230 229 235 240 242 233 238 226 228 230 242 261 277 286 264 292 286 298 298 297 298 288 292 263 273 277 260 254 240 234 242 237 225 227 231 234 236 237 239 239 238 239 240 241 240 239 238 238 238 238 237 232 228 225 221 218 220 223 225 225 224 221 222 223
245 271 271 292 313 171 209 246 235 233 231 234 233 239 242 241 232 222 218 229 231 249 262 282 283 286 282 278 288 295 297 302 301 306 289 281 273 268 254 258 251 255 236 230 232 231 232 234 235 236 237 239 240 240 241 241 239 237 238 239 238 236 233 232 229 225 223 222 222 224 224 223 222 223
325 16 345 326 300 238 237 256 253 240 246 249 250 251 249 241 234 229 224 228 239 243 257 266 292 324 310 318 305 305 285 297 306 309 299 298 281 272 284 269 263 261 239 236 248 248 248 243 239 238 238 239 240 239 238 240 241 239 238 239 238 236 234 233 232 231 229 226 225 223 223 223 222 222
32 342 324 308 283 242 215 223 239 248 255 247 251 248 253 252 256 254 242 242 251 258 269 274 265 293 290 275 296 333 304 279 268 287 309 296 266 258 265 284 275 256 260 244 236 240 234 234 234 237 238 241 241 240 241 243 244 243 241 241 240 238 234 233 233 232 232 231 229 227 226 224 224 223
14 302 272 275 306 308 290 274 277 262 271 265 261 248 238 250 252 256 261 264 260 262 266 266 286 274 293 300 285 280 290 302 301 252 251 278 294 294 250 245 273 263 238 269 268 257 254 253 249 249 248 244 243 239 240 241 241 241 241 242 241 241 239 236 235 234 233 233 231 229 228 227 225 224
19 12 8 3 359 0 354 334 304 280 258 248 267 277 258 264 259 272 267 255 252 261 273 291 286 291 292 289 299 303 292 258 268 282 238 272 278 295 302 276 245 253 267 270 274 270 258 260 247 234 242 244 235 234 232 239 239 239 239 240 240 240 239 237 236 235 235 234 233 231 229 228 227 226
3 360 355 349 351 351 352 351 347 329 299 276 258 266 250 247 254 257 257 252 250 264 272 271 282 284 277 280 280 283 284 290 291 296 284 277 284 301 284 285 262 228 232 265 270 267 255 234 263 244 244 255 224 233 225 229 233 234 234 237 238 239 239 238 237 236 235 236 236 234 231 229 228 227
347 347 345 343 347 360 5 10 8 4 3 349 315 293 294 300 290 265 252 248 259 251 258 266 266 266 281 289 293 289 294 298 289 288 287 278 289 288 298 301 305 153 199 248 265 275 262 201 246 254 251 259 248 226 239 238 232 236 237 236 237 238 238 238 237 237 237 235 235 235 233 230 228 228
345 336 337 357 26 35 23 26 9 360 4 13 22 24 9 352 329 318 285 314 321 316 314 298 288 293 292 302 315 321 347 344 333 321 318 306 295 294 288 285 286 306 83 286 290 286 282 209 240 269 264 261 265 256 251 246 239 238 239 238 237 237 237 236 236 237 238 237 236 236 234 232 229 228
359 349 353 59 47 19 23 22 7 9 7 6 16 26 36 41 41 41 51 142 229 298 303 312 308 328 335 327 340 13 352 336 325 331 324 324 323 314 304 296 304 300 310 291 282 283 288 285 260 268 272 273 266 268 261 256 251 245 243 242 239 238 238 237 236 237 237 236 236 236 236 234 231 229
20 30 54 70 54 35 30 21 14 14 11 4 5 12 19 16 9 12 48 63 89 80 38 7 333 337 358 318 311 318 340 330 314 315 307 309 303 298 287 297 295 289 300 280 283 281 282 282 277 270 275 273 270 264 265 262 256 251 247 245 243 240 238 238 237 237 236 235 236 236 236 235 233 231
44 72 80 82 74 49 39 19 11 11 3 360 1 360 7 18 359 7 27 42 46 39 24 360 298 291 295 291 299 303 306 290 288 284 282 288 287 287 288 281 273 284 281 270 258 267 277 286 284 273 278 285 278 268 271 263 260 257 253 249 245 242 240 238 237 236 236 235 235 235 235 234 233 230
41 87 93 91 77 65 43 12 6 1 336 354 0 358 343 352 50 54 59 82 44 20 337 312 302 298 298 288 283 285 288 288 276 282 285 284 281 296 304 295 306 293 306 286 269 281 279 288 284 284 278 279 279 278 273 269 266 261 257 254 251 246 242 241 239 238 237 237 236 236 236 236 234 232
12 93 97 85 87 56 25 357 355 351 338 355 1 352 346 338 4 42 61 80 82 339 319 312 308 304 305 305 300 298 293 282 274 279 312 310 318 331 315 306 309 301 310 303 290 286 290 296 289 291 286 278 274 276 274 274 270 266 260 257 258 255 251 247 246 244 241 241 240 239 238 238 237 235
10 25 57 87 94 55 5 345 351 345 342 11 351 5 2 8 9 350 354 357 344 342 318 306 304 302 301 303 304 302 305 310 322 335 311 293 319 301 284 294 300 300 303 289 280 283 282 295 283 287 286 280 265 263 266 269 271 269 268 261 258 261 261 257 253 249 246 243 242 241 239 240 238 239
20 20 21 55 65 30 350 349 356 347 349 2 2 1 18 8 353 330 347 351 338 344 349 344 341 331 322 315 312 310 308 307 307 287 263 291 301 295 296 295 304 305 290 267 314 304 306 314 304 311 307 298 292 271 277 279 283 280 279 279 272 258 257 257 254 252 251 248 246 243 241 239 234 231
17 9 356 18 77 3 350 347 356 7 360 1 335 354 36 353 324 344 342 335 332 328 333 310 312 302 301 301 299 304 311 311 306 304 292 282 282 287 296 297 291 287 292 298 307 298 295 294 295 304 293 300 301 309 304 297 291 298 298 292 285 285 277 270 265 261 257 255 251 248 245 243 228 221
357 353 352 334 356 352 347 346 347 356 12 1 334 316 286 241 299 340 324 330 343 322 316 317 317 316 318 322 324 328 331 333 337 331 313 300 285 286 293 296 295 289 287 287 296 300 296 302 295 298 286 281 285 295 292 293 292 288 289 287 289 287 285 279 258 261 248 250 251 251 251 247 232 211
359 348 344 339 344 345 342 342 343 347 353 350 355 285 278 296 310 310 298 302 315 309 317 320 328 336 341 346 349 348 349 347 343 342 339 341 338 319 297 296 299 300 298 299 299 291 292 293 289 292 291 290 287 280 293 289 289 294 286 282 280 281 278 283 275 260 249 252 251 241 243 244 239 216
330 329 335 327 337 334 332 335 338 345 350 4 359 333 334 314 289 273 293 309 332 345 344 349 350 348 351 353 353 349 347 343 341 340 338 336 334 325 322 319 311 302 302 304 300 292 284 282 281 279 285 283 285 291 281 289 292 295 293 291 289 281 279 279 278 273 251 250 252 247 244 246 246 227
335 341 342 327 321 323 330 338 346 354 18 19 3 13 13 30 41 38 29 29 13 360 4 5 360 357 353 351 346 346 338 336 335 333 332 333 331 331 327 320 310 301 298 299 301 296 290 285 285 276 274 283 284 286 293 285 282 288 288 295 291 290 286 270 270 275 270 252 258 252 251 254 235 217
345 326 318 323 331 335 346 356 3 12 12 12 14 18 25 28 29 24 30 28 20 20 10 4 359 356 353 340 325 319 322 324 328 333 336 332 330 331 329 323 313 309 310 314 319 322 321 315 311 308 297 290 291 290 291 296 298 296 297 298 296 298 298 288 283 281 277 271 259 249 243 244 244 211
334 341 342 346 352 359 4 1 10 7 356 356 20 28 33 33 30 30 35 28 23 17 6 10 5 347 340 340 329 314 317 339 344 344 337 335 336 342 343 335 329 329 330 335 339 336 335 331 327 325 319 312 306 300 298 299 293 294 302 293 290 290 272 282 280 274 277 273 265 258 251 238 242 219
356 348 353 332 321 328 355 24 28 20 12 21 20 19 20 25 30 32 43 35 21 12 11 7 356 343 333 320 337 344 347 348 348 350 335 332 332 337 339 329 322 328 326 329 329 329 326 324 328 331 322 316 312 307 307 302 295 300 297 289 294 289 297 297 291 289 278 276 277 269 265 254 240 227
340 336 332 355 13 11 14 11 20 17 20 26 21 17 15 18 22 24 25 32 31 20 17 3 340 343 348 353 346 343 347 349 348 346 340 340 335 338 332 331 331 327 323 324 321 321 319 321 321 316 307 301 300 302 302 298 295 297 294 290 286 284 289 290 287 287 285 286 284 280 273 264 258 241
345 357 11 9 358 8 2 9 10 5 14 9 9 13 11 14 16 14 16 13 7 360 17 9 359 348 345 343 342 345 346 349 347 344 342 342 339 333 333 330 322 327 329 323 322 321 323 319 314 304 297 294 290 290 296 299 298 298 296 297 295 294 301 298 294 293 297 291 283 285 284 272 266 259
5 360 355 338 344 338 356 9 4 358 6 11 5 355 359 7 14 8 4 3 354 5 13 360 357 347 340 337 343 350 348 338 339 340 347 337 336 337 336 329 325 323 319 313 312 314 320 321 319 314 303 291 281 280 287 290 299 310 319 322 322 314 311 312 304 300 298 291 292 290 284 284 274 259
66 16 348 322 329 310 318 8 328 331 356 357 4 355 353 354 4 2 6 352 352 4 359 350 349 345 348 343 349 354 348 340 332 336 338 335 334 331 329 323 321 321 321 318 314 317 320 319 322 321 321 321 321 296 264 291 329 325 315 307 311 307 307 311 311 307 306 298 291 285 286 281 277 273
254 196 259 288 288 277 344 323 305 318 338 327 335 331 2 346 340 8 4 350 17 8 5 359 354 353 349 344 348 342 329 322 323 329 329 333 330 324 320 313 310 308 309 309 305 310 312 309 317 319 321 322 320 317 317 33 334 321 317 306 307 308 304 304 302 302 300 298 293 289 287 284 286 280
270 227 219 245 256 247 232 241 225 248 240 276 315 2 3 351 335 351 339 12 35 5 344 337 336 327 324 324 324 313 311 317 324 327 325 326 322 319 317 315 313 309 307 304 304 302 306 306 312 313 313 309 308 303 299 321 324 319 306 307 302 299 302 301 301 297 292 289 288 284 281 285 282 279
235 241 236 244 241 239 219 218 209 228 252 232 238 267 248 240 259 278 301 60 2 302 295 307 301 304 297 302 319 316 315 309 312 317 319 320 322 320 314 309 308 309 308 306 304 301 301 301 304 308 307 306 307 307 306 315 319 309 302 297 298 297 298 294 293 289 291 289 286 287 285 279 275 277
230 237 240 245 245 231 223 228 204 215 215 212 207 209 219 226 230 242 222 232 251 271 280 294 294 287 288 291 288 294 301 312 317 317 319 321 318 314 311 306 303 302 306 304 301 301 302 301 304 304 307 305 304 300 302 301 301 298 298 290 284 291 288 285 287 290 289 294 292 291 284 278 282 278
239 222 231 234 244 233 226 221 216 214 208 210 208 206 193 203 204 211 227 237 257 263 256 261 260 275 279 275 282 284 288 285 286 293 302 307 307 305 303 303 300 300 300 299 302 304 303 301 301 310 307 299 292 290 286 284 282 278 273 281 269 261 281 290 285 288 291 285 289 291 290 296 296 294
239 237 240 225 234 230 224 218 216 208 212 213 212 211 210 203 194 205 206 219 231 260 273 272 267 263 270 278 283 285 292 289 286 292 296 297 296 295 295 296 294 293 295 294 296 298 297 298 297 292 289 288 288 291 293 294 295 298 295 288 286 275 266 263 271 279 277 284 286 285 284 287 292 293
233 241 253 238 228 235 222 224 217 211 217 213 210 215 224 219 221 208 200 217 236 250 260 271 275 276 280 279 279 281 271 285 293 296 297 304 308 306 301 301 296 296 292 291 293 295 294 293 292 294 293 294 299 301 294 293 294 297 297 297 294 288 285 279 266 259 260 271 281 279 279 284 277 273
235 236 247 250 240 240 229 221 216 206 217 214 217 221 223 239 237 217 209 212 226 235 251 264 267 266 275 279 277 271 276 286 286 290 295 299 302 303 303 297 294 293 291 286 286 286 289 291 293 295 296 296 288 283 285 289 289 290 294 297 297 300 294 289 285 278 269 259 249 248 256 263 279 272
238 239 244 246 243 238 233 222 219 212 210 212 221 222 223 235 250 247 227 222 222 231 230 247 267 273 276 278 276 277 273 274 276 281 288 293 294 293 291 292 290 290 289 287 289 289 290 291 289 294 298 296 294 291 288 291 290 290 290 289 293 297 296 302 300 292 281 268 260 254 251 247 245 251
250 242 249 253 244 240 233 225 215 211 206 217 224 233 246 246 250 259 255 256 267 260 255 249 267 275 275 281 290 290 282 286 287 278 279 285 287 287 285 286 289 290 288 289 292 291 290 291 293 292 284 285 287 282 282 280 284 290 292 293 294 293 297 302 304 302 299 298 281 264 259 258 257 257